Regional Weather Roundup
Issued by NWS Albany, NY

Home | Current Version | Previous Version | Graphics & Text | Print | Product List | Glossary Off
Versions: 1 2 3 4 5 6 7 8 9 10 11 12 13 14 15 16 17 18 19 20 21 22 23 24 25 26 27 28 29 30 31 32 33 34 35 36 37 38 39 40 41 42 43 44 45 46 47 48 49 50

000
ASUS41 KALY 220710
RWRALY

NEW YORK STATE HOURLY WEATHER ROUNDUP
NATIONAL WEATHER SERVICE ALBANY NY
300 AM EDT FRI AUG 22 2014

NOTE: "FAIR" INDICATES FEW OR NO CLOUDS BELOW 12,000 FEET WITH NO
SIGNIFICANT WEATHER AND/OR NO OBSTRUCTIONS TO VISIBILITY.

NYZ032-033-038>043-046>054-057>066-NYZ062>081-220800-
EAST


CITY           SKY/WX    TMP DP  RH WIND       PRES   REMARKS
ALBANY         MOCLDY    67  63  87 CALM      30.02R
GLENS FALLS    CLOUDY    63  60  90 NE5       30.03R
POUGHKEEPSIE   CLOUDY    68  65  90 SE3       30.01S
NEWBURGH       MOCLDY    66  64  94 SE6       30.03
MONTGOMERY     CLOUDY    63  62  97 CALM      30.02S FOG
WHITE PLAINS   CLOUDY    66  64  93 SE5       30.03S
ISLIP          LGT RAIN  68  66  93 CALM      30.02S
NEW YORK CITY  CLOUDY    68  64  87 SE3       30.02R
CENTRAL PARK   CLOUDY    67  65  93 S6        30.05S FOG
$$

NYZ005>009-017-018-044>046-055-056-220800-
CENTRAL


CITY           SKY/WX    TMP DP  RH WIND       PRES   REMARKS
FULTON         FOG       63  62  97 CALM      29.97R VSB 1/2
SYRACUSE       MOCLDY    63  63 100 CALM      29.96S
ROME           CLOUDY    66  65  96 CALM      29.99R
ELMIRA         FOG       63  63 100 CALM      29.99S VSB 1/4
BINGHAMTON     FOG       61  61 100 CALM      30.01S VSB 1/4
MONTICELLO     CLOUDY    63  63 100 CALM      30.05S
$$

NYZ026>034-041>043-220800-
NORTH


CITY           SKY/WX    TMP DP  RH WIND       PRES   REMARKS
WATERTOWN      PTCLDY    62  58  86 E3        29.96S FOG
FORT DRUM      NOT AVBL
MASSENA        CLOUDY    63  62  97 E6        30.00S
SARANAC LAKE   CLOUDY    60  60 100 E5        30.03S FOG
PLATTSBURGH    CLOUDY    63  61  93 CALM      30.03S
$$

NYZ001>004-010>016-019>021-220800-
WEST


CITY           SKY/WX    TMP DP  RH WIND       PRES   REMARKS
NIAGARA FALLS  CLEAR     64  62  93 N6        29.97R
BUFFALO        PTCLDY    67  63  87 SW8       29.97S
DUNKIRK        MOCLDY    68  65  90 S7        29.98S
JAMESTOWN      CLOUDY    66  64  94 SW5       30.03S VSB 1
WELLSVILLE     CLEAR     63  61  93 SW5       30.05S FOG
ROCHESTER      PTCLDY    67  65  93 SW5       29.96F FOG
PENN YAN       PTCLDY    66  64  93 CALM      29.99S
$$

             KEY
       WCI = WIND CHILL INDEX
       VSB = VISIBILITY
       HX  = HEAT INDEX
$$



USA.gov is the U.S. government's official web portal to all federal, state and local government web resources and services.